Torna al catalogo

COSMOS 928

AttivoNavigazionePO
NORAD 10141·PAYLOAD·🇷🇺 Russia

Lanciato Jul 13, 1977 da Plesetsk Cosmodrome

Loading…

Prossimi Passaggi (prossime 24 ore)

TLE

AggiornatoSource: Space-Track

Epoca: Sep 14, 2026, 11:06 UTC

1 10141U 77064A   26257.46319360  .00000049  00000-0  33380-4 0  9999
2 10141  82.9627  71.8625 0039110 114.5568 245.9674 13.76912965469786

Traccia COSMOS 928 in tempo reale con AllMySat

Download on the App Store